Date String (YYYY-MM-DD hh:mm:ss) UTC,Instrument flags,absolute air pressure of the measurement (hPa),sample flow rate (lpm),inlet stack bypass flow (lpm),air temperature of the measurement (°C),ambient temperature measured by the external sensor (°C),aerosol sample conditioner tube jacket temperature (°C),OPC LED temperature (°C),internal box temperature (°C),relative humidity of the measurement (%),span deviation,mass concentration of particles derived from Lorenz-Mie calculation of OPC scattering (μg/m³),mass concentration of particles derived from Lorenz-Mie calculation of OPC scattering (μg/m³),mass concentration of particles derived from Lorenz-Mie calculation of OPC scattering (μg/m³)
DateTimeUTC,F1_M11,P_M11,Q1_M11,Q2_M11,T1_M11,T2_M11,T3_M11,T4_M11,T5_M11,U1_M11,ZSPAN_M11,X2_M11,X0_M11,X1_M11
2023-06-07 03:00:00,SystemResetWarning,0829.7,5.00,000.00,029.6,028.2,000.0,038.1,031.1,24.4,0000.0,0003.44,0005.82,0003.08
2023-06-07 03:01:00,SystemResetWarning,0829.7,4.99,000.00,029.6,028.2,000.0,038.1,031.1,24.2,0000.0,0003.43,0006.12,0003.04
2023-06-07 03:02:00,SystemResetWarning,0829.8,4.99,000.00,029.6,028.3,000.0,038.1,031.2,24.7,0000.0,0003.42,0006.13,0003.02
2023-06-07 03:03:00,SystemResetWarning,0829.8,5.00,000.00,029.6,028.3,000.0,038.1,031.2,24.5,0000.0,0003.42,0006.25,0003.03
2023-06-07 03:04:00,SystemResetWarning,0829.8,5.01,000.00,029.7,028.4,000.0,038.1,031.2,24.6,0000.0,0003.42,0006.22,0003.03
2023-06-07 03:05:00,SystemResetWarning,0829.8,5.01,000.00,029.7,028.4,000.0,038.1,031.2,24.7,0000.0,0003.44,0006.22,0003.05
2023-06-07 03:06:00,SystemResetWarning,0829.9,4.98,000.00,029.7,027.3,000.0,038.1,031.3,24.9,0000.0,0003.43,0006.13,0003.05
2023-06-07 03:07:00,SystemResetWarning,0829.9,5.01,000.00,029.7,025.3,000.0,038.1,031.2,25.0,0000.0,0003.45,0006.16,0003.06
2023-06-07 03:08:00,SystemResetWarning,0830.0,5.01,000.00,029.7,024.9,000.0,038.1,031.1,25.2,0000.0,0003.46,0005.86,0003.07
2023-06-07 03:09:00,SystemResetWarning,0830.0,5.00,000.00,029.5,025.1,000.0,038.0,030.8,25.5,0000.0,0003.46,0006.43,0003.08
2023-06-07 03:10:00,SystemResetWarning,0830.0,5.00,000.00,029.5,025.5,000.0,038.0,030.7,26.1,0000.0,0003.44,0006.61,0003.10
2023-06-07 03:11:00,SystemResetWarning,0830.0,5.00,000.00,029.4,025.9,000.0,038.0,030.7,26.3,0000.0,0003.46,0006.70,0003.12
2023-06-07 03:12:00,SystemResetWarning,0830.1,4.99,000.00,029.4,026.3,000.0,038.0,030.7,26.5,0000.0,0003.49,0006.48,0003.15
2023-06-07 03:13:00,SystemResetWarning,0830.0,5.00,000.00,029.4,026.7,000.0,038.0,030.7,26.9,0000.0,0003.53,0006.68,0003.18
2023-06-07 03:14:00,SystemResetWarning,0830.0,5.01,000.00,029.4,026.9,000.0,038.0,030.8,26.8,0000.0,0003.55,0007.10,0003.20
2023-06-07 03:15:00,SystemResetWarning,0830.1,4.99,000.00,029.4,027.2,000.0,038.0,030.8,26.6,0000.0,0003.60,0007.24,0003.22
2023-06-07 03:16:00,SystemResetWarning,0830.1,4.99,000.00,029.4,027.4,000.0,038.0,030.8,26.5,0000.0,0003.63,0007.35,0003.25
2023-06-07 03:17:00,SystemResetWarning,0830.1,5.00,000.00,029.4,027.6,000.0,038.0,030.9,26.4,0000.0,0003.66,0007.49,0003.27
2023-06-07 03:18:00,SystemResetWarning,0830.1,5.01,000.00,029.4,027.7,000.0,038.0,030.9,26.3,0000.0,0003.69,0007.60,0003.30
2023-06-07 03:19:00,SystemResetWarning,0830.1,5.01,000.00,029.5,027.8,000.0,038.0,030.9,26.2,0000.0,0003.71,0007.62,0003.33
2023-06-07 03:20:00,SystemResetWarning,0830.1,5.00,000.00,029.5,027.9,000.0,038.0,031.0,26.2,0000.0,0003.75,0007.43,0003.36
2023-06-07 03:21:00,SystemResetWarning,0830.2,5.00,000.00,029.5,028.0,000.0,038.0,031.0,26.1,0000.0,0003.77,0007.22,0003.37
2023-06-07 03:22:00,SystemResetWarning,0830.2,5.00,000.00,029.5,028.1,000.0,038.0,031.0,26.2,0000.0,0003.78,0007.32,0003.37
2023-06-07 03:23:00,SystemResetWarning,0830.2,5.00,000.00,029.6,028.1,000.0,038.1,031.1,26.0,0000.0,0003.78,0007.52,0003.39
2023-06-07 03:24:00,SystemResetWarning,0830.3,5.00,000.00,029.6,028.2,000.0,038.1,031.1,25.8,0000.0,0003.78,0008.14,0003.39
2023-06-07 03:25:00,SystemResetWarning,0830.3,5.00,000.00,029.6,028.2,000.0,038.1,031.1,25.9,0000.0,0003.77,0008.41,0003.41
2023-06-07 03:26:00,SystemResetWarning,0830.2,5.00,000.00,029.6,028.3,000.0,038.1,031.2,26.2,0000.0,0003.74,0008.26,0003.42
2023-06-07 03:27:00,SystemResetWarning,0830.2,5.00,000.00,029.7,028.3,000.0,038.1,031.2,26.3,0000.0,0003.75,0008.27,0003.43
2023-06-07 03:28:00,SystemResetWarning,0830.2,4.99,000.00,029.7,028.4,000.0,038.1,031.2,26.3,0000.0,0003.75,0008.20,0003.44
2023-06-07 03:29:00,SystemResetWarning,0830.3,5.00,000.00,029.7,028.4,000.0,038.2,031.3,26.2,0000.0,0003.77,0008.25,0003.46
2023-06-07 03:30:00,SystemResetWarning,0830.3,5.01,000.00,029.7,028.4,000.0,038.2,031.3,26.2,0000.0,0003.77,0008.21,0003.47
2023-06-07 03:31:00,SystemResetWarning,0830.3,5.00,000.00,029.8,028.5,000.0,038.2,031.3,26.2,0000.0,0003.77,0008.17,0003.48
2023-06-07 03:32:00,SystemResetWarning,0830.2,4.99,000.00,029.8,027.6,000.0,038.2,031.4,26.1,0000.0,0003.78,0008.16,0003.50
2023-06-07 03:33:00,SystemResetWarning,0830.2,5.00,000.00,029.8,025.5,000.0,038.2,031.3,26.1,0000.0,0003.78,0008.06,0003.52
2023-06-07 03:34:00,SystemResetWarning,0830.3,5.00,000.00,029.7,024.9,000.0,038.1,031.1,26.2,0000.0,0003.83,0007.93,0003.53
2023-06-07 03:35:00,SystemResetWarning,0830.3,5.01,000.00,029.6,025.1,000.0,038.1,030.8,26.3,0000.0,0003.86,0007.19,0003.55
2023-06-07 03:36:00,SystemResetWarning,0830.3,5.01,000.00,029.5,025.5,000.0,038.1,030.7,26.4,0000.0,0003.90,0006.83,0003.56
2023-06-07 03:37:00,SystemResetWarning,0830.3,5.00,000.00,029.5,025.9,000.0,038.1,030.7,26.4,0000.0,0003.92,0007.42,0003.56
2023-06-07 03:38:00,SystemResetWarning,0830.3,4.99,000.00,029.5,026.3,000.0,038.1,030.7,26.4,0000.0,0003.92,0007.39,0003.57
2023-06-07 03:39:00,SystemResetWarning,0830.4,5.00,000.00,029.4,026.7,000.0,038.1,030.8,26.4,0000.0,0003.94,0007.46,0003.56
2023-06-07 03:40:00,SystemResetWarning,0830.4,5.00,000.00,029.4,027.0,000.0,038.1,030.8,26.4,0000.0,0003.94,0007.40,0003.55
2023-06-07 03:41:00,SystemResetWarning,0830.5,4.99,000.00,029.5,027.2,000.0,038.1,030.9,26.4,0000.0,0003.94,0007.48,0003.54
2023-06-07 03:42:00,SystemResetWarning,0830.4,5.00,000.00,029.5,027.4,000.0,038.1,030.9,26.4,0000.0,0003.94,0007.50,0003.54
2023-06-07 03:43:00,SystemResetWarning,0830.4,5.00,000.00,029.5,027.6,000.0,038.1,030.9,26.2,0000.0,0003.94,0007.65,0003.53
2023-06-07 03:44:00,SystemResetWarning,0830.5,5.00,000.00,029.5,027.8,000.0,038.1,031.0,25.9,0000.0,0003.94,0007.70,0003.52
2023-06-07 03:45:00,SystemResetWarning,0830.6,5.00,000.00,029.5,027.9,000.0,038.1,031.0,25.8,0000.0,0003.89,0007.55,0003.51
2023-06-07 03:46:00,SystemResetWarning,0830.6,5.00,000.00,029.5,028.0,000.0,038.1,031.0,25.5,0000.0,0003.84,0007.44,0003.48
2023-06-07 03:47:00,SystemResetWarning,0830.5,4.99,000.00,029.5,028.0,000.0,038.1,031.1,25.6,0000.0,0003.77,0007.27,0003.43
2023-06-07 03:48:00,SystemResetWarning,0830.6,5.00,000.00,029.6,028.1,000.0,038.1,031.1,25.8,0000.0,0003.73,0007.19,0003.40
2023-06-07 03:49:00,SystemResetWarning,0830.6,5.00,000.00,029.6,028.2,000.0,038.1,031.1,25.9,0000.0,0003.73,0007.38,0003.37
2023-06-07 03:50:00,SystemResetWarning,0830.6,4.99,000.00,029.6,028.2,000.0,038.1,031.2,26.0,0000.0,0003.66,0007.42,0003.34
2023-06-07 03:51:00,SystemResetWarning,0830.5,5.01,000.00,029.7,028.3,000.0,038.1,031.2,26.0,0000.0,0003.62,0007.87,0003.32
2023-06-07 03:52:00,SystemResetWarning,0830.5,4.99,000.00,029.7,028.3,000.0,038.2,031.2,25.8,0000.0,0003.60,0007.75,0003.30
2023-06-07 03:53:00,SystemResetWarning,0830.5,5.00,000.00,029.7,028.4,000.0,038.2,031.2,26.0,0000.0,0003.57,0007.70,0003.28
2023-06-07 03:54:00,SystemResetWarning,0830.5,5.00,000.00,029.7,028.4,000.0,038.2,031.3,26.1,0000.0,0003.55,0007.58,0003.27
2023-06-07 03:55:00,SystemResetWarning,0830.9,5.00,000.00,029.8,028.4,000.0,038.2,031.3,26.0,0000.0,0003.54,0007.51,0003.26
2023-06-07 03:56:00,SystemResetWarning,0830.7,5.01,000.00,029.8,028.4,000.0,038.2,031.3,26.0,0000.0,0003.57,0007.63,0003.25
2023-06-07 03:57:00,SystemResetWarning,0830.5,5.01,000.00,029.8,028.5,000.0,038.3,031.3,25.9,0000.0,0003.59,0007.72,0003.26
2023-06-07 03:58:00,SystemResetWarning,0830.6,5.01,000.00,029.8,028.5,000.0,038.3,031.4,26.0,0000.0,0003.62,0008.22,0003.27
2023-06-07 03:59:00,SystemResetWarning,0830.5,5.00,000.00,029.8,028.5,000.0,038.3,031.4,26.1,0000.0,0003.63,0007.86,0003.28
